Showing default

SHARJAHSAT-1, 55104

Orbit data source: Space-Track

SHARJAHSAT-1, 55104 is a payload satellite owned by Sharjah SAAST (AE) in SSO that was launched on Tue, 03 Jan 2023 UTC via an FALCON 9 launch vehicle from the Air Force Eastern Test Range (AFETR). Payload-class satellites include a variety of spacecraft equipped with specific instruments for various scientific and technological missions. These include communications satellites like Starlink; space stations such as the ISS; scientific satellites like the Hubble; Earth observation satellites from companies like Planet Labs, Umbra, and HawkEye 360; GPS; miniature CubeSats for education and research; and military/defense satellites.

Loading next visibility...
Identifier
55104, 2023-001CZ
Orbit
SSO
Country
Flag of AEAE / UAE
Related business
Manufacturer
Sharjah SAAST
Mission
Operational Amateur Technology
Bus & Motor
CUBESAT 3U, Unknown motor
Mass
4 kg wet, 4 kg dry
Launch date (UTC)
2023-01-03 (3 years ago)
Launch vehicle
FALCON 9
Launch site
Air Force Eastern Test Range (AFETR)
Object type
Payload
Rocket body
Debris
Shape & HBR
Box, 0.1 m
Radar Cross Section
0.035 m², Small (<0.1 m²)

Expand to show TLE details & history
Last TLE update: 1 day ago

TLE from 1 day ago
0 SHARJAHSAT-1
1 55104U 23001CZ  25312.85395278  .00028507  00000-0  72298-3 0  9994
2 55104  97.3513  14.6153 0007330 171.1048 189.0329 15.39627843158486
Epoch: 2025-11-08T20:29Z
TLE epoch observation values (Epoch: 2025-11-08T20:29:41.520Z)
Latitude
-0.00002°
Longitude
18.91471°
Altitude
455.27 km
Speed
7.637 km/s
True Right ascension
00h 58m 27s
True Declination
0° 00' 00"
Sunlit
Object was in full shadow at epoch
Visualization orbit readout
Latitude
Unknown
Longitude
Unknown
Altitude
Unknown
Speed
Unknown
Apparent Right ascension
Unknown
Apparent Declination
Unknown
Sunlit
N/A
Visualization observer readout
Local Sidereal Time
17:57:47
Azimuth
Unknown
Elevation
Unknown
Doppler factor
Unknown
Orbital elements
Apogee altitude
449.147 km
Perigee altitude
439.146 km
Semi-major axis
6,822.283 km
Eccentricity
0.00073
Inclination
97.3513°
RAAN
14.6153°
Arg. of periapsis
171.1048°
True anomaly
189.01972°
Mean anomaly
189.0329°
Eccentric anomaly
189.02631°
Mean motion
3.85167 °/min
Orbital period
93.47 mins
BSTAR
0.00072298
Loading maneuver chart data...
Computing Atmospheric mass density...

Documentation

Showing up to 5 results
|